[[{"header":{"parameterUnit":"m.s-1","parameterCategory":2,"la1":30.2991,"la2":30.254,"lo1":-89.0895,"lo2":-89.0444,"dy":0.0017,"dx":0.0017,"nx":28,"ny":28,"refTime":"2024-12-03T03:00:00:Z","depth":"0","parameterNumber":2,"parameterNumberName":"U-component_of_CURRENTS"},"data":[0,0,0,0,0,0,0,0,0,0,0,0,0,0,0,0,0,0,0,0,0,0,0,0,0,0,0,0,0,0,0,0,0,0,0,0,0,0,0,0,0,0,0,0,0,0,0,0,0,0,0,0,0,0,0,0,0,0,-0.2672,-0.2672,0,-0.2692,-0.2692,-0.2692,-0.2652,-0.265,-0.2649,-0.2648,-0.2609,-0.2609,-0.2609,0,0,0,0,0,0,0,0,0,0,0,0,0,-0.261,-0.2611,-0.2672,-0.2672,-0.2673,-0.2692,-0.2692,-0.2693,-0.2652,-0.265,-0.2649,-0.2648,-0.2609,-0.2609,-0.2609,0,0,0,0,0,0,0,0,0,0,0,0,0,-0.2632,-0.2611,-0.2672,-0.2657,-0.2656,-0.2692,-0.2692,-0.2693,-0.2652,-0.265,-0.2649,-0.2647,-0.2609,-0.2609,-0.2609,-0.2644,0,0,-0.261,-0.261,0,0,0,0,0,0,0,0,-0.2631,-0.2634,-0.2658,-0.2658,-0.2657,-0.267,-0.2657,-0.2674,-0.2652,-0.2651,-0.2648,-0.2646,-0.2627,-0.2625,-0.2631,-0.2642,-0.264,-0.261,-0.261,-0.261,-0.261,0,0,0,0,0,0,0,-0.2629,-0.2633,-0.2678,-0.2659,-0.2658,-0.2653,-0.2654,-0.266,-0.2645,-0.2651,-0.2649,-0.2655,-0.2625,-0.2631,-0.2629,-0.2639,-0.261,-0.261,-0.261,-0.261,-0.2663,-0.2664,0,0,0,0,0,0,-0.2633,-0.2632,-0.2677,-0.2678,-0.2642,-0.2656,-0.2657,-0.2665,-0.2646,-0.2643,-0.2657,-0.2653,-0.2631,-0.2629,-0.2628,-0.2655,-0.261,-0.261,-0.261,-0.2662,-0.2663,-0.2665,0,0,0,0,0,0,-0.2632,-0.2637,-0.2676,-0.2657,-0.2662,-0.2659,-0.2669,-0.2667,-0.2663,-0.2652,-0.2646,-0.2654,-0.263,-0.2628,-0.2634,-0.2654,-0.261,-0.261,-0.266,-0.2662,-0.2664,-0.2718,0,0,0,0,0,0,-0.263,-0.2637,-0.264,-0.2658,-0.2663,-0.27,-0.2671,-0.2668,-0.2672,-0.2667,-0.2649,-0.2644,-0.2628,-0.2634,-0.2634,-0.2653,-0.261,-0.2658,-0.2661,-0.2664,-0.2715,-0.2722,-0.2728,0,0,0,0,0,-0.2628,-0.2642,-0.264,-0.2645,-0.2669,-0.2702,-0.2704,-0.2694,-0.2673,-0.2682,-0.2668,-0.2644,-0.265,-0.2635,-0.2635,-0.2654,-0.2657,-0.266,-0.2663,-0.2712,-0.272,-0.2728,0,0,0,0,0,0,-0.2614,-0.264,-0.2637,-0.2657,-0.2679,-0.2695,-0.27,-0.2698,-0.2695,-0.2684,-0.2663,-0.2659,-0.2674,-0.2661,-0.2645,-0.2679,-0.265,-0.2653,-0.2687,-0.2695,-0.2702,-0.2697,-0.261,0,0,0,0,0,-0.2616,-0.2628,-0.2658,-0.267,-0.2683,-0.2692,-0.27,-0.27,-0.2705,-0.2701,-0.2691,-0.2683,-0.2692,-0.2688,-0.2692,-0.2711,-0.2686,-0.2724,-0.273,-0.2736,-0.2734,-0.273,-0.2735,-0.2675,-0.2675,-0.2675,0,0,-0.261,-0.2628,-0.2633,-0.2668,-0.2678,-0.2709,-0.2692,-0.2711,-0.2732,-0.2699,-0.2713,-0.2709,-0.2704,-0.2725,-0.273,-0.2711,-0.2739,-0.274,-0.2745,-0.2739,-0.2733,-0.2739,-0.2744,-0.2677,-0.2677,-0.2677,0,0,-0.2617,-0.2627,-0.2644,-0.2671,-0.27,-0.2715,-0.2723,-0.2746,-0.2748,-0.2772,-0.2755,-0.2762,-0.277,-0.2772,-0.2774,-0.2822,-0.2779,-0.2823,-0.2848,-0.2845,-0.2849,-0.2853,-0.2819,-0.2819,-0.2821,-0.2821,-0.2822,0,-0.2609,-0.2637,-0.2654,-0.2687,-0.2707,-0.2721,-0.2751,-0.277,-0.2789,-0.2797,-0.278,-0.2802,-0.2795,-0.2823,-0.2836,-0.2836,-0.2814,-0.2816,-0.2852,-0.2855,-0.2858,-0.2822,-0.2822,-0.2824,-0.2824,-0.2824,-0.2823,0,-0.2634,-0.266,-0.2675,-0.2718,-0.2747,-0.2774,-0.2811,-0.2834,-0.2836,-0.2849,-0.2874,-0.2871,-0.2876,-0.2885,-0.2872,-0.2897,-0.2867,-0.2864,-0.2828,-0.2867,-0.2827,-0.2825,-0.2829,-0.2828,-0.2827,-0.2826,0,0,-0.2597,-0.2676,-0.2678,-0.2703,-0.2764,-0.2787,-0.2838,-0.2881,-0.2897,-0.292,-0.2936,-0.2961,-0.2947,-0.2948,-0.2939,-0.2936,-0.2934,-0.2906,-0.2904,-0.2865,-0.29,-0.2813,-0.2802,-0.2934,-0.2935,-0.2935,-0.286,0,-0.2605,-0.2663,-0.2706,-0.2757,-0.2787,-0.2833,-0.2874,-0.2915,-0.2938,-0.296,-0.2971,-0.2981,-0.2976,-0.2969,-0.2973,-0.2947,-0.2934,-0.2952,-0.2874,-0.2871,-0.2783,-0.2799,-0.2675,-0.2593,-0.2858,-0.2858,-0.2857,0,-0.2606,-0.2646,-0.2697,-0.277,-0.2787,-0.282,-0.2876,-0.2919,-0.2968,-0.2984,-0.3008,-0.3008,-0.3021,-0.3,-0.2979,-0.2989,-0.2946,-0.2921,-0.2918,-0.2815,-0.2781,-0.2599,-0.2579,-0.2551,-0.2854,-0.2855,-0.2855,0,-0.2549,-0.2634,-0.2669,-0.2696,-0.2784,-0.2808,-0.2851,-0.2912,-0.2941,-0.2989,-0.3,-0.3025,-0.3015,-0.2998,-0.2953,-0.2963,-0.2908,-0.2914,-0.2793,-0.2785,-0.2652,-0.2632,-0.2588,-0.2886,-0.2886,-0.2886,-0.2886,0,-0.253,-0.2553,-0.2641,-0.2656,-0.2689,-0.2767,-0.2799,-0.2851,-0.2912,-0.2934,-0.2993,-0.3,-0.3012,-0.2987,-0.2953,-0.2859,-0.2906,-0.2789,-0.2763,-0.2666,-0.2649,-0.2596,-0.2621,-0.2883,-0.2884,-0.2884,-0.2885,0,-0.2448,-0.2514,-0.2552,-0.2637,-0.2659,-0.2675,-0.2757,-0.2778,-0.2857,-0.2886,-0.2899,-0.2964,-0.2936,-0.2925,-0.2879,-0.2831,-0.2708,-0.2718,-0.2588,-0.2548,-0.2408,-0.244,-0.2363,-0.2295,-0.2573,-0.257,-0.2568,0,-0.2409,-0.2421,-0.2503,-0.2512,-0.2543,-0.2587,-0.261,-0.272,-0.2751,-0.2853,-0.2852,-0.2862,-0.2832,-0.2746,-0.2673,-0.2579,-0.2589,-0.2413,-0.2416,-0.2373,-0.2391,-0.2423,-0.2375,-0.2256,-0.2252,-0.2248,-0.2245,0,-0.2315,-0.2344,-0.2368,-0.2395,-0.2418,-0.2455,-0.2506,-0.253,-0.2652,-0.2682,-0.2711,-0.27,-0.2644,-0.2507,-0.2405,-0.2342,-0.2347,-0.2332,-0.2328,-0.2168,-0.216,-0.209,-0.2326,-0.2212,-0.2215,-0.2217,-0.2219,-0.2221,-0.2218,-0.2209,-0.224,-0.2251,-0.2278,-0.2292,-0.2273,-0.2348,-0.2373,-0.2395,-0.2496,-0.2447,-0.2379,-0.222,-0.215,-0.2001,-0.2093,-0.1943,-0.1991,-0.2031,-0.1952,-0.21,-0.194,-0.1942,-0.1943,-0.1945,-0.1946,0,-0.2086,-0.209,-0.2093,-0.2101,-0.2069,-0.2138,-0.2169,-0.2127,-0.2099,-0.2166,-0.2158,-0.2122,-0.1971,-0.1931,-0.1794,-0.1696,-0.1665,-0.1663,-0.169,-0.1661,-0.1805,-0.1776,-0.1523,-0.1523,-0.1524,-0.1524,-0.1524,-0.1524,-0.2015,-0.1968,-0.1974,-0.1881,-0.1879,-0.1791,-0.1772,-0.1739,-0.1752,-0.1709,-0.1729,-0.1791,-0.1777,-0.1824,-0.166,-0.1564,-0.1537,-0.1477,-0.1528,-0.165,-0.1681,-0.171,-0.1687,-0.1421,-0.1421,-0.1306,-0.1305,-0.1304]},{"header":{"parameterUnit":"m.s-1","parameterCategory":2,"la1":30.2991,"la2":30.254,"lo1":-89.0895,"lo2":-89.0444,"dy":0.0017,"dx":0.0017,"nx":28,"ny":28,"refTime":"2024-12-03T03:00:00:Z","depth":"0","parameterNumber":3,"parameterNumberName":"V-component_of_CURRENTS"},"data":[0,0,0,0,0,0,0,0,0,0,0,0,0,0,0,0,0,0,0,0,0,0,0,0,0,0,0,0,0,0,0,0,0,0,0,0,0,0,0,0,0,0,0,0,0,0,0,0,0,0,0,0,0,0,0,0,0,0,-0.0399,-0.0398,0,-0.0317,-0.0316,-0.0315,-0.0253,-0.0253,-0.0252,-0.0252,-0.0131,-0.0129,-0.0126,0,0,0,0,0,0,0,0,0,0,0,0,0,-0.0452,-0.0452,-0.0399,-0.0398,-0.0397,-0.0317,-0.0316,-0.0314,-0.0253,-0.0253,-0.0252,-0.0252,-0.0132,-0.0129,-0.0126,0,0,0,0,0,0,0,0,0,0,0,0,0,-0.0404,-0.0452,-0.0399,-0.0358,-0.0354,-0.0317,-0.0316,-0.0314,-0.0253,-0.0252,-0.0252,-0.0251,-0.0133,-0.0129,-0.0125,-0.0112,0,0,-0.0112,-0.011,0,0,0,0,0,0,0,0,-0.0407,-0.0402,-0.0365,-0.0361,-0.0356,-0.0296,-0.029,-0.0245,-0.0253,-0.029,-0.0252,-0.0251,-0.0184,-0.0176,-0.016,-0.0106,-0.0101,-0.0112,-0.0109,-0.0107,-0.0106,0,0,0,0,0,0,0,-0.0411,-0.0405,-0.0365,-0.0364,-0.0359,-0.0327,-0.0319,-0.0281,-0.024,-0.0286,-0.0282,-0.0276,-0.0181,-0.0164,-0.0157,-0.0099,-0.0112,-0.0108,-0.0106,-0.0104,-0.0014,-0.0014,0,0,0,0,0,0,-0.0427,-0.0409,-0.0368,-0.0363,-0.0382,-0.0326,-0.0318,-0.0314,-0.0241,-0.023,-0.0276,-0.0273,-0.0172,-0.0162,-0.0152,-0.0134,-0.0107,-0.0104,-0.0101,-0.0013,-0.0014,-0.0014,0,0,0,0,0,0,-0.0429,-0.0424,-0.0371,-0.0385,-0.0376,-0.0327,-0.0323,-0.0313,-0.0296,-0.0234,-0.0221,-0.0269,-0.0171,-0.0158,-0.0121,-0.0128,-0.0102,-0.0098,-0.0013,-0.0014,-0.0014,-0.0095,0,0,0,0,0,0,-0.0431,-0.0426,-0.043,-0.0386,-0.0376,-0.0359,-0.0323,-0.0312,-0.0294,-0.0289,-0.0224,-0.0212,-0.017,-0.0128,-0.0117,-0.0122,-0.0094,-0.0013,-0.0013,-0.0014,-0.0092,-0.0098,-0.0103,0,0,0,0,0,-0.0433,-0.0446,-0.0431,-0.0426,-0.0383,-0.036,-0.0352,-0.0313,-0.0295,-0.0294,-0.0247,-0.0214,-0.0121,-0.0125,-0.0112,-0.0116,-0.0013,-0.0013,-0.0014,-0.009,-0.0097,-0.0103,0,0,0,0,0,0,-0.0471,-0.044,-0.0422,-0.0425,-0.0398,-0.035,-0.0347,-0.032,-0.0283,-0.0277,-0.0215,-0.0201,-0.0171,-0.0132,-0.0137,-0.009,-0.0062,-0.006,-0.0124,-0.013,-0.0135,-0.0151,-0.0091,0,0,0,0,0,-0.0483,-0.0484,-0.0447,-0.0448,-0.0439,-0.0394,-0.038,-0.0355,-0.0316,-0.0299,-0.0253,-0.0204,-0.0162,-0.0138,-0.0097,-0.0073,-0.0024,-0.0066,-0.0071,-0.0076,-0.0079,-0.0017,-0.0017,-0.0015,-0.0015,-0.0015,0,0,-0.0497,-0.0481,-0.0481,-0.0457,-0.0432,-0.043,-0.0384,-0.037,-0.0364,-0.0292,-0.0271,-0.0222,-0.016,-0.0132,-0.0115,-0.01,-0.0051,-0.0076,-0.0081,-0.0082,-0.0017,-0.0017,-0.0017,-0.0015,-0.0015,-0.0015,0,0,-0.0536,-0.0514,-0.0531,-0.0516,-0.0489,-0.046,-0.0461,-0.0418,-0.0394,-0.0368,-0.0314,-0.0271,-0.0212,-0.0166,-0.0135,-0.0145,-0.0083,-0.0133,-0.017,-0.011,-0.011,-0.0109,-0.0049,-0.0042,-0.0134,-0.0134,-0.0134,0,-0.0557,-0.057,-0.0532,-0.0546,-0.054,-0.048,-0.0497,-0.0465,-0.0415,-0.0394,-0.0374,-0.0275,-0.0227,-0.018,-0.0185,-0.0158,-0.0113,-0.0154,-0.0118,-0.0116,-0.0114,-0.0052,-0.0043,-0.0138,-0.0138,-0.0137,-0.0137,0,-0.0608,-0.0618,-0.0627,-0.0623,-0.061,-0.0614,-0.0569,-0.0548,-0.051,-0.047,-0.0418,-0.0345,-0.0285,-0.0263,-0.0228,-0.0188,-0.0159,-0.0135,-0.0106,-0.0119,-0.0053,-0.0043,-0.0144,-0.0143,-0.0141,-0.014,0,0,-0.0655,-0.0664,-0.0666,-0.068,-0.0653,-0.0649,-0.0636,-0.0603,-0.0587,-0.0527,-0.0497,-0.0423,-0.0373,-0.0335,-0.0276,-0.0224,-0.0172,-0.0182,-0.0177,-0.013,-0.0036,0.0012,0.0029,-0.0143,-0.0142,-0.0141,0.0003,0,-0.0707,-0.0759,-0.0739,-0.0775,-0.0796,-0.0741,-0.0734,-0.0692,-0.0637,-0.0592,-0.0501,-0.0451,-0.0402,-0.0371,-0.0313,-0.0205,-0.0148,-0.0213,-0.0023,-0.0017,0.0021,0.0041,0.0082,0.0216,0.0014,0.0016,0.0017,0,-0.0764,-0.079,-0.0844,-0.0854,-0.0855,-0.0861,-0.0827,-0.081,-0.0725,-0.0682,-0.0608,-0.053,-0.044,-0.0398,-0.0224,-0.0268,-0.0165,-0.0079,-0.0071,0.0009,0.0051,0.0198,0.0243,0.0396,0.0034,0.0033,0.0031,0,-0.0824,-0.0859,-0.0906,-0.0911,-0.0912,-0.0915,-0.0902,-0.0839,-0.0819,-0.0731,-0.0696,-0.0578,-0.0509,-0.0373,-0.0195,-0.0209,0.0007,0.0013,0.0158,0.0163,0.0253,0.0264,0.0463,0.0136,0.0135,0.0135,0.0135,0,-0.0889,-0.0923,-0.0939,-0.0967,-0.1008,-0.0978,-0.0989,-0.0953,-0.0892,-0.0862,-0.0746,-0.0682,-0.05,-0.035,-0.0202,0.0019,0.0008,0.0161,0.0207,0.0226,0.0232,0.0414,0.0468,0.014,0.0139,0.0138,0.0137,0,-0.0949,-0.0961,-0.1016,-0.1035,-0.1042,-0.1068,-0.106,-0.1058,-0.0989,-0.0942,-0.0916,-0.0752,-0.0551,-0.0348,-0.0107,0.0019,0.0326,0.0299,0.0309,0.0354,0.0606,0.0652,0.0896,0.0987,0.0472,0.0474,0.0476,0,-0.0984,-0.1022,-0.1073,-0.1108,-0.1121,-0.1149,-0.1163,-0.1117,-0.1103,-0.0974,-0.0951,-0.0751,-0.0589,-0.0211,0.0051,0.0334,0.0447,0.0524,0.0501,0.0639,0.0725,0.0755,0.0814,0.0595,0.0597,0.0599,0.0601,0,-0.1046,-0.1063,-0.1106,-0.1185,-0.1221,-0.1255,-0.1265,-0.1273,-0.1196,-0.1124,-0.0983,-0.0838,-0.046,-0.0117,0.0247,0.0419,0.0641,0.0575,0.0729,0.0849,0.0887,0.0989,0.0476,0.062,0.0618,0.0617,0.0616,0.0615,-0.1077,-0.1126,-0.1183,-0.1252,-0.13,-0.1342,-0.136,-0.1339,-0.1297,-0.1161,-0.1016,-0.0749,-0.0263,0.0265,0.0459,0.0868,0.0822,0.0982,0.1031,0.1052,0.113,0.0653,0.0837,0.0836,0.0835,0.0835,0.0835,0,-0.111,-0.1167,-0.1245,-0.1321,-0.1379,-0.1385,-0.1407,-0.1383,-0.1321,-0.1149,-0.0968,-0.0411,0.0073,0.0518,0.1084,0.1304,0.1348,0.1416,0.1474,0.1515,0.1118,0.1113,0.1353,0.1353,0.1353,0.1353,0.1353,0.1352,-0.113,-0.1208,-0.1254,-0.136,-0.1412,-0.1448,-0.1453,-0.139,-0.1264,-0.0949,-0.0626,-0.0369,0.0273,0.1157,0.1669,0.1722,0.19,0.1896,0.1983,0.1709,0.1671,0.1636,0.1647,0.1995,0.1995,0.237,0.2374,0.2377]}],[{"header":{"parameterUnit":"m.s-1","parameterCategory":2,"la1":30.2991,"la2":30.254,"lo1":-89.0895,"lo2":-89.0444,"dy":0.0017,"dx":0.0017,"nx":28,"ny":28,"refTime":"2024-12-03T03:00:00:Z","depth":"2","parameterNumber":2,"parameterNumberName":"U-component_of_CURRENTS"},"data":[0,0,0,0,0,0,0,0,0,0,0,0,0,0,0,0,0,0,0,0,0,0,0,0,0,0,0,0,0,0,0,0,0,0,0,0,0,0,0,0,0,0,0,0,0,0,0,0,0,0,0,0,0,0,0,0,0,0,-0.2433,-0.2434,0,-0.2465,-0.2465,-0.2465,-0.2438,-0.2437,-0.2436,-0.2435,-0.2417,-0.2417,-0.2417,0,0,0,0,0,0,0,0,0,0,0,0,0,-0.2363,-0.2364,-0.2433,-0.2434,-0.2435,-0.2464,-0.2465,-0.2465,-0.2438,-0.2437,-0.2436,-0.2434,-0.2416,-0.2417,-0.2417,0,0,0,0,0,0,0,0,0,0,0,0,0,-0.2392,-0.2364,-0.2433,-0.2426,-0.2426,-0.2464,-0.2465,-0.2465,-0.2438,-0.2437,-0.2435,-0.2434,-0.2416,-0.2417,-0.2417,-0.2448,0,0,-0.2419,-0.2419,0,0,0,0,0,0,0,0,-0.239,-0.2394,-0.2427,-0.2427,-0.2427,-0.2448,-0.2433,-0.2458,-0.2438,-0.2431,-0.2435,-0.2433,-0.2425,-0.2425,-0.2431,-0.2447,-0.2447,-0.2419,-0.2419,-0.242,-0.242,0,0,0,0,0,0,0,-0.2388,-0.2393,-0.2443,-0.2428,-0.2428,-0.2426,-0.2428,-0.2438,-0.2433,-0.2432,-0.243,-0.2438,-0.2424,-0.2431,-0.243,-0.2446,-0.2419,-0.242,-0.242,-0.242,-0.2483,-0.2484,0,0,0,0,0,0,-0.239,-0.2391,-0.2442,-0.2445,-0.2407,-0.2429,-0.2431,-0.2441,-0.2434,-0.2432,-0.2439,-0.2437,-0.243,-0.243,-0.243,-0.2463,-0.242,-0.242,-0.2421,-0.2482,-0.2483,-0.2485,0,0,0,0,0,0,-0.2388,-0.2394,-0.2441,-0.242,-0.2426,-0.2431,-0.2442,-0.2442,-0.2445,-0.244,-0.2437,-0.2442,-0.2429,-0.2429,-0.2442,-0.2462,-0.242,-0.2421,-0.248,-0.2482,-0.2484,-0.2533,0,0,0,0,0,0,-0.2386,-0.2394,-0.2399,-0.242,-0.2427,-0.2468,-0.2444,-0.2444,-0.2453,-0.245,-0.2442,-0.2439,-0.2428,-0.2442,-0.2443,-0.2462,-0.2421,-0.2479,-0.2481,-0.2484,-0.2529,-0.2536,-0.2542,0,0,0,0,0,-0.2384,-0.2398,-0.2399,-0.2405,-0.2435,-0.2469,-0.2472,-0.247,-0.2454,-0.2464,-0.2459,-0.2439,-0.2458,-0.2443,-0.2444,-0.2464,-0.2477,-0.248,-0.2483,-0.2526,-0.2535,-0.2542,0,0,0,0,0,0,-0.2368,-0.2398,-0.2398,-0.242,-0.2444,-0.2465,-0.2473,-0.2474,-0.2479,-0.2471,-0.2458,-0.2456,-0.2477,-0.2468,-0.2452,-0.2491,-0.2464,-0.2468,-0.2497,-0.2504,-0.2511,-0.2505,-0.2422,0,0,0,0,0,-0.237,-0.2385,-0.2417,-0.2432,-0.2445,-0.246,-0.2471,-0.2475,-0.2486,-0.2486,-0.2483,-0.2482,-0.2494,-0.2495,-0.2503,-0.2525,-0.2504,-0.2539,-0.2545,-0.255,-0.2548,-0.2547,-0.2553,-0.2495,-0.2495,-0.2495,0,0,-0.2366,-0.2385,-0.2392,-0.2429,-0.2443,-0.2475,-0.2462,-0.2486,-0.2509,-0.2484,-0.2506,-0.2507,-0.2506,-0.2531,-0.254,-0.2522,-0.2555,-0.2554,-0.2559,-0.2553,-0.2551,-0.2556,-0.2561,-0.2497,-0.2497,-0.2496,0,0,-0.2373,-0.2387,-0.2405,-0.2432,-0.2465,-0.2482,-0.2491,-0.252,-0.2526,-0.2556,-0.2544,-0.2556,-0.2573,-0.2577,-0.258,-0.2628,-0.2592,-0.2631,-0.2653,-0.2654,-0.2658,-0.2662,-0.2633,-0.2634,-0.263,-0.263,-0.263,0,-0.2367,-0.2395,-0.2416,-0.2447,-0.247,-0.2488,-0.2518,-0.254,-0.2568,-0.2578,-0.2567,-0.2599,-0.2596,-0.2626,-0.2639,-0.2641,-0.2623,-0.2624,-0.266,-0.2664,-0.2666,-0.2636,-0.2636,-0.2633,-0.2632,-0.2632,-0.2632,0,-0.2391,-0.2418,-0.2434,-0.2478,-0.2508,-0.2537,-0.2576,-0.2601,-0.2611,-0.2627,-0.2659,-0.2662,-0.2674,-0.2683,-0.2673,-0.2699,-0.2673,-0.2671,-0.2638,-0.2675,-0.2641,-0.264,-0.2637,-0.2636,-0.2635,-0.2634,0,0,-0.2359,-0.2436,-0.2438,-0.2464,-0.2526,-0.255,-0.26,-0.2646,-0.2666,-0.2695,-0.2717,-0.2745,-0.2737,-0.2741,-0.2735,-0.2735,-0.2736,-0.2709,-0.2708,-0.2673,-0.2713,-0.2625,-0.2615,-0.2739,-0.2739,-0.274,-0.2678,0,-0.2367,-0.2424,-0.2465,-0.2516,-0.2547,-0.2593,-0.2635,-0.2679,-0.2707,-0.2734,-0.275,-0.2767,-0.2763,-0.2762,-0.2768,-0.2747,-0.2737,-0.2751,-0.2688,-0.2686,-0.2597,-0.2613,-0.2419,-0.2342,-0.2677,-0.2676,-0.2676,0,-0.237,-0.2408,-0.246,-0.2531,-0.2548,-0.2582,-0.2641,-0.2685,-0.2739,-0.2759,-0.2789,-0.2795,-0.281,-0.2793,-0.278,-0.2787,-0.2751,-0.2731,-0.2728,-0.2626,-0.2596,-0.2361,-0.2327,-0.2674,-0.2674,-0.2675,-0.2675,0,-0.2318,-0.24,-0.2436,-0.2462,-0.2548,-0.2574,-0.2617,-0.2681,-0.2712,-0.2767,-0.2782,-0.2812,-0.2809,-0.2797,-0.276,-0.2768,-0.2725,-0.2731,-0.2616,-0.2608,-0.242,-0.2395,-0.271,-0.271,-0.271,-0.271,-0.271,0,-0.2302,-0.2326,-0.2412,-0.2428,-0.2463,-0.2539,-0.2576,-0.2628,-0.2692,-0.2715,-0.2778,-0.2788,-0.2809,-0.2791,-0.2761,-0.2677,-0.2726,-0.2612,-0.2589,-0.2431,-0.2409,-0.2683,-0.268,-0.2708,-0.2708,-0.2709,-0.2709,0,-0.2229,-0.2292,-0.233,-0.2414,-0.2437,-0.2457,-0.2539,-0.2561,-0.2643,-0.2674,-0.2688,-0.2757,-0.2736,-0.2735,-0.27,-0.2655,-0.2599,-0.2553,-0.2352,-0.2307,-0.2479,-0.2481,-0.2421,-0.2417,-0.2414,-0.2412,-0.2409,0,-0.2195,-0.2208,-0.2289,-0.2299,-0.233,-0.2378,-0.2402,-0.2509,-0.2538,-0.264,-0.2638,-0.2659,-0.2628,-0.2559,-0.2489,-0.2405,-0.2499,-0.2184,-0.217,-0.2467,-0.2451,-0.2457,-0.2462,-0.1934,-0.1928,-0.1923,-0.1919,0,-0.2111,-0.214,-0.2165,-0.2192,-0.2216,-0.2253,-0.2303,-0.2322,-0.2438,-0.2467,-0.2491,-0.2479,-0.2434,-0.2266,-0.2181,-0.2116,-0.2189,-0.2083,-0.2436,-0.2046,-0.2005,-0.1991,-0.2012,-0.1876,-0.1881,-0.1884,-0.1886,-0.1888,-0.2027,-0.202,-0.205,-0.206,-0.2088,-0.2097,-0.2076,-0.2139,-0.2157,-0.2164,-0.2265,-0.2183,-0.2168,-0.1934,-0.1829,-0.1754,-0.191,-0.1825,-0.184,-0.1861,-0.1825,-0.1782,-0.1603,-0.1605,-0.1608,-0.1609,-0.1611,0,-0.1909,-0.1912,-0.1914,-0.1921,-0.189,-0.1957,-0.1976,-0.1926,-0.1883,-0.1918,-0.1901,-0.1708,-0.1587,-0.1584,-0.1397,-0.1359,-0.1356,-0.1304,-0.1301,-0.1343,-0.1381,-0.1323,-0.0966,-0.0965,-0.0963,-0.0961,0,0,-0.1846,-0.1801,-0.1802,-0.1712,-0.171,-0.1625,-0.1599,-0.1548,-0.1534,-0.1445,-0.1402,-0.1503,-0.1534,-0.1257,-0.1185,-0.1045,-0.1185,-0.0989,-0.1504,-0.1543,-0.1578,-0.1676,-0.1633,0,0,0,0,0]},{"header":{"parameterUnit":"m.s-1","parameterCategory":2,"la1":30.2991,"la2":30.254,"lo1":-89.0895,"lo2":-89.0444,"dy":0.0017,"dx":0.0017,"nx":28,"ny":28,"refTime":"2024-12-03T03:00:00:Z","depth":"2","parameterNumber":3,"parameterNumberName":"V-component_of_CURRENTS"},"data":[0,0,0,0,0,0,0,0,0,0,0,0,0,0,0,0,0,0,0,0,0,0,0,0,0,0,0,0,0,0,0,0,0,0,0,0,0,0,0,0,0,0,0,0,0,0,0,0,0,0,0,0,0,0,0,0,0,0,-0.025,-0.0249,0,-0.0177,-0.0176,-0.0175,-0.0121,-0.0121,-0.0121,-0.012,-0.0012,-0.001,-0.0007,0,0,0,0,0,0,0,0,0,0,0,0,0,-0.0292,-0.0292,-0.025,-0.0249,-0.0248,-0.0177,-0.0176,-0.0175,-0.0122,-0.0121,-0.0121,-0.012,-0.0013,-0.001,-0.0007,0,0,0,0,0,0,0,0,0,0,0,0,0,-0.0251,-0.0292,-0.025,-0.0214,-0.021,-0.0178,-0.0176,-0.0175,-0.0122,-0.0121,-0.0121,-0.012,-0.0014,-0.001,-0.0006,0.0007,0,0,0.0005,0.0007,0,0,0,0,0,0,0,0,-0.0253,-0.0249,-0.022,-0.0216,-0.0212,-0.0159,-0.0152,-0.0113,-0.0122,-0.0154,-0.012,-0.012,-0.0059,-0.0052,-0.0038,0.0012,0.0017,0.0006,0.0008,0.001,0.0011,0,0,0,0,0,0,0,-0.0256,-0.0252,-0.0219,-0.0219,-0.0214,-0.0185,-0.0179,-0.0144,-0.0108,-0.0151,-0.0147,-0.0142,-0.0057,-0.0041,-0.0035,0.0019,0.0006,0.0009,0.0012,0.0013,0.0097,0.0097,0,0,0,0,0,0,-0.0271,-0.0255,-0.0222,-0.0217,-0.0234,-0.0185,-0.0178,-0.0175,-0.0109,-0.01,-0.0142,-0.0139,-0.0048,-0.0039,-0.003,-0.0011,0.001,0.0013,0.0016,0.0097,0.0097,0.0097,0,0,0,0,0,0,-0.0273,-0.0269,-0.0225,-0.0235,-0.0228,-0.0185,-0.0183,-0.0174,-0.016,-0.0103,-0.0092,-0.0136,-0.0047,-0.0036,-0.0002,-0.0006,0.0015,0.0019,0.0097,0.0097,0.0097,0.0029,0,0,0,0,0,0,-0.0274,-0.027,-0.0275,-0.0237,-0.0228,-0.0214,-0.0183,-0.0173,-0.0158,-0.0154,-0.0095,-0.0084,-0.0046,-0.0008,0.0002,-0.0,0.0022,0.0097,0.0097,0.0097,0.0031,0.0026,0.0022,0,0,0,0,0,-0.0276,-0.0288,-0.0276,-0.0272,-0.0236,-0.0215,-0.0208,-0.0174,-0.0158,-0.0158,-0.0116,-0.0086,-0.0002,-0.0005,0.0006,0.0005,0.0097,0.0097,0.0097,0.0033,0.0027,0.0022,0,0,0,0,0,0,-0.0308,-0.0283,-0.0269,-0.0272,-0.0249,-0.0206,-0.0204,-0.018,-0.0147,-0.0142,-0.0087,-0.0074,-0.0046,-0.0011,-0.0016,0.003,0.0053,0.0055,0.0,-0.0005,-0.0009,-0.0023,0.0025,0,0,0,0,0,-0.032,-0.0322,-0.029,-0.0292,-0.0284,-0.0245,-0.0233,-0.0211,-0.0177,-0.0161,-0.0121,-0.0076,-0.0038,-0.0015,0.0021,0.0046,0.0088,0.0054,0.0049,0.0045,0.0043,0.01,0.01,0.0096,0.0096,0.0096,0,0,-0.0333,-0.0319,-0.032,-0.03,-0.0278,-0.0276,-0.0236,-0.0225,-0.0218,-0.0155,-0.0135,-0.0092,-0.0036,-0.0008,0.0008,0.0021,0.0069,0.0045,0.0041,0.0041,0.01,0.01,0.0101,0.0096,0.0096,0.0096,0,0,-0.0366,-0.0349,-0.0364,-0.0351,-0.0328,-0.0302,-0.0303,-0.0266,-0.0244,-0.022,-0.0172,-0.0132,-0.0079,-0.0035,-0.0007,-0.0013,0.004,-0.0003,-0.0032,0.0023,0.0023,0.0025,0.0077,0.0083,-0.0002,-0.0003,-0.0003,0,-0.0384,-0.0397,-0.0365,-0.0376,-0.0371,-0.032,-0.0334,-0.0304,-0.026,-0.0241,-0.0224,-0.0134,-0.009,-0.0044,-0.0047,-0.0023,0.0015,-0.0019,0.0016,0.0018,0.0021,0.0074,0.0082,-0.0006,-0.0005,-0.0005,-0.0005,0,-0.0427,-0.0437,-0.0445,-0.0441,-0.043,-0.0434,-0.0393,-0.0374,-0.0341,-0.0306,-0.0257,-0.019,-0.0136,-0.0115,-0.0083,-0.0044,-0.0021,0.0,0.0026,0.0017,0.0074,0.0083,-0.0011,-0.0009,-0.0008,-0.0008,0,0,-0.047,-0.0476,-0.0479,-0.0492,-0.0467,-0.0464,-0.045,-0.0419,-0.0407,-0.035,-0.0324,-0.0252,-0.0209,-0.0174,-0.0121,-0.0071,-0.0022,-0.0036,-0.0032,0.0009,0.0098,0.0127,0.014,0.0003,0.0004,0.0005,0.0131,0,-0.0514,-0.0559,-0.0541,-0.0573,-0.0592,-0.0543,-0.0535,-0.0497,-0.045,-0.041,-0.0324,-0.028,-0.0233,-0.0206,-0.0149,-0.0054,-0.0,-0.0058,0.0108,0.0112,0.0134,0.0151,0.0124,0.0235,0.014,0.0142,0.0143,0,-0.0563,-0.0587,-0.0634,-0.0645,-0.0646,-0.0651,-0.0624,-0.0607,-0.0531,-0.0493,-0.0424,-0.0354,-0.0267,-0.0229,-0.0069,-0.0109,-0.0016,0.0061,0.0069,0.0125,0.0159,0.0231,0.0256,0.016,0.0158,0.0157,0.0156,0,-0.0618,-0.0649,-0.0692,-0.0697,-0.0697,-0.0701,-0.0691,-0.0635,-0.062,-0.054,-0.0513,-0.0399,-0.0338,-0.021,-0.005,-0.006,0.0131,0.0142,0.0261,0.0264,0.0289,0.0293,0.0256,0.0256,0.0256,0.0255,0.0255,0,-0.0676,-0.0708,-0.0723,-0.0749,-0.079,-0.0762,-0.0778,-0.0745,-0.0693,-0.0673,-0.0561,-0.0508,-0.0332,-0.0198,-0.0059,0.0134,0.013,0.0263,0.0301,0.0265,0.0264,0.0236,0.0232,0.026,0.0259,0.0258,0.0257,0,-0.0731,-0.0741,-0.0793,-0.0813,-0.0821,-0.0849,-0.0849,-0.0851,-0.0791,-0.0758,-0.0735,-0.0584,-0.0405,-0.0215,0.0007,0.0123,0.0303,0.0373,0.0317,0.0347,0.04,0.0391,0.0514,0.0516,0.0517,0.0519,0.052,0,-0.0764,-0.0798,-0.085,-0.0885,-0.0898,-0.093,-0.0948,-0.0909,-0.0902,-0.0797,-0.078,-0.0604,-0.0461,-0.0122,0.0113,0.0371,0.0369,0.0485,0.0465,0.0402,0.0428,0.0416,0.0405,0.0475,0.0476,0.0477,0.0477,0,-0.0823,-0.084,-0.0881,-0.096,-0.0998,-0.1036,-0.1052,-0.1063,-0.1001,-0.0943,-0.0826,-0.0699,-0.0372,-0.009,0.0234,0.0381,0.0439,0.0507,0.0476,0.0406,0.0375,0.0396,0.0386,0.0483,0.0482,0.0482,0.0482,0.0482,-0.0856,-0.0903,-0.0959,-0.1027,-0.1078,-0.1123,-0.1143,-0.1129,-0.1099,-0.0983,-0.0866,-0.0637,-0.0377,0.0096,0.0321,0.053,0.0525,0.0578,0.0572,0.0567,0.0532,0.0505,0.0631,0.0631,0.0632,0.0632,0.0632,0,-0.0893,-0.0946,-0.1021,-0.1098,-0.1157,-0.1166,-0.1193,-0.1171,-0.1119,-0.0976,-0.0823,-0.0509,-0.0189,0.0089,0.0423,0.0613,0.0593,0.0642,0.0575,0.0569,0.0563,0.0524,0.0624,0.0624,0.0625,0.0625,0,0,-0.0914,-0.0989,-0.1031,-0.1137,-0.1191,-0.1231,-0.1239,-0.1177,-0.1068,-0.0906,-0.0726,-0.0497,-0.0167,0.0064,0.0302,0.0475,0.0472,0.0493,0.0481,0.0367,0.036,0.051,0.0442,0,0,0,0,0]}],[{"header":{"parameterUnit":"m.s-1","parameterCategory":2,"la1":30.2991,"la2":30.254,"lo1":-89.0895,"lo2":-89.0444,"dy":0.0017,"dx":0.0017,"nx":28,"ny":28,"refTime":"2024-12-03T03:00:00:Z","depth":"4","parameterNumber":2,"parameterNumberName":"U-component_of_CURRENTS"},"data":[0,0,0,0,0,0,0,0,0,0,0,0,0,0,0,0,0,0,0,0,0,0,0,0,0,0,0,0,0,0,0,0,0,0,0,0,0,0,0,0,0,0,0,0,0,0,0,0,0,0,0,0,0,0,0,0,0,0,-0.1742,-0.1743,0,-0.1818,-0.1818,-0.1819,-0.1859,-0.1859,-0.186,-0.186,-0.1925,-0.1927,-0.1928,0,0,0,0,0,0,0,0,0,0,0,0,0,-0.1638,-0.1639,-0.1742,-0.1743,-0.1744,-0.1817,-0.1818,-0.1819,-0.1859,-0.1859,-0.186,-0.186,-0.1925,-0.1927,-0.1928,0,0,0,0,0,0,0,0,0,0,0,0,0,-0.1693,-0.164,-0.1742,-0.1774,-0.1778,-0.1817,-0.1818,-0.1819,-0.1859,-0.186,-0.186,-0.186,-0.1924,-0.1926,-0.1929,-0.1936,0,0,-0.1936,-0.1937,0,0,0,0,0,0,0,0,-0.169,-0.1697,-0.1768,-0.1772,-0.1776,-0.1831,-0.1806,-0.1858,-0.1859,-0.1827,-0.186,-0.186,-0.1894,-0.1898,-0.191,-0.1939,-0.1942,-0.1936,-0.1937,-0.1938,-0.1939,0,0,0,0,0,0,0,-0.1686,-0.1694,-0.177,-0.177,-0.1775,-0.1787,-0.1795,-0.1816,-0.1856,-0.1829,-0.1833,-0.1844,-0.1896,-0.1907,-0.1911,-0.1942,-0.1936,-0.1938,-0.1939,-0.194,-0.2054,-0.2055,0,0,0,0,0,0,-0.168,-0.169,-0.1768,-0.1773,-0.1735,-0.1789,-0.1798,-0.1812,-0.1856,-0.1863,-0.1844,-0.1846,-0.1903,-0.1909,-0.1914,-0.1994,-0.1938,-0.194,-0.1942,-0.2052,-0.2054,-0.2056,0,0,0,0,0,0,-0.1677,-0.1686,-0.1765,-0.1734,-0.1745,-0.179,-0.1806,-0.1813,-0.1853,-0.1867,-0.1874,-0.1879,-0.1904,-0.1911,-0.1961,-0.1994,-0.1941,-0.1943,-0.205,-0.2053,-0.2055,-0.2109,0,0,0,0,0,0,-0.1674,-0.1685,-0.1707,-0.1734,-0.1747,-0.1808,-0.1806,-0.1814,-0.1858,-0.1862,-0.1899,-0.1904,-0.1904,-0.1958,-0.1963,-0.1996,-0.1945,-0.2048,-0.2051,-0.2054,-0.2105,-0.2113,-0.212,0,0,0,0,0,-0.167,-0.1694,-0.1707,-0.1717,-0.1771,-0.1809,-0.1818,-0.1849,-0.186,-0.1885,-0.1912,-0.1905,-0.1981,-0.1961,-0.1967,-0.2001,-0.2046,-0.205,-0.2054,-0.2102,-0.2112,-0.212,0,0,0,0,0,0,-0.1662,-0.1702,-0.1716,-0.1753,-0.1788,-0.1817,-0.1847,-0.1866,-0.1908,-0.192,-0.1928,-0.1935,-0.1991,-0.1991,-0.1968,-0.2043,-0.2012,-0.2017,-0.2046,-0.2056,-0.2063,-0.2051,-0.1947,0,0,0,0,0,-0.167,-0.1699,-0.1736,-0.1768,-0.1788,-0.1823,-0.1848,-0.1871,-0.1904,-0.1925,-0.1952,-0.198,-0.2007,-0.2027,-0.2051,-0.2093,-0.2073,-0.2119,-0.2126,-0.2133,-0.2128,-0.2134,-0.2141,-0.2068,-0.2068,-0.2068,0,0,-0.1677,-0.1702,-0.1721,-0.1769,-0.1799,-0.1837,-0.184,-0.1888,-0.1926,-0.1924,-0.1992,-0.2011,-0.2025,-0.2074,-0.2098,-0.208,-0.2143,-0.2137,-0.2142,-0.2134,-0.2138,-0.2145,-0.2151,-0.207,-0.207,-0.207,0,0,-0.1695,-0.1729,-0.1758,-0.1792,-0.1844,-0.1867,-0.1887,-0.1937,-0.1968,-0.2028,-0.2036,-0.2075,-0.2125,-0.2137,-0.2148,-0.221,-0.2183,-0.2225,-0.2253,-0.2259,-0.2264,-0.2269,-0.2247,-0.225,-0.2227,-0.2227,-0.2227,0,-0.1704,-0.1742,-0.1773,-0.181,-0.1843,-0.1883,-0.1923,-0.1961,-0.2023,-0.205,-0.206,-0.2136,-0.2151,-0.2195,-0.2217,-0.2226,-0.2215,-0.2217,-0.2267,-0.2271,-0.2275,-0.2251,-0.2253,-0.223,-0.223,-0.2229,-0.2229,0,-0.1733,-0.1779,-0.1801,-0.1858,-0.1898,-0.1942,-0.1993,-0.2043,-0.2085,-0.2116,-0.2185,-0.2209,-0.2246,-0.2264,-0.226,-0.2301,-0.2279,-0.2275,-0.224,-0.2285,-0.2258,-0.2259,-0.2234,-0.2233,-0.2232,-0.2232,0,0,-0.1711,-0.1803,-0.1814,-0.185,-0.1929,-0.196,-0.2032,-0.2094,-0.2135,-0.2201,-0.2247,-0.2302,-0.2313,-0.2325,-0.2332,-0.234,-0.2356,-0.2322,-0.2321,-0.2291,-0.2352,-0.2194,-0.2179,-0.2364,-0.2364,-0.2365,-0.232,0,-0.1726,-0.1796,-0.1843,-0.1916,-0.1954,-0.2018,-0.2075,-0.214,-0.2193,-0.2248,-0.2285,-0.2332,-0.2338,-0.2357,-0.2371,-0.2363,-0.2362,-0.2367,-0.232,-0.2318,-0.2165,-0.2176,-0.2367,-0.2321,-0.2321,-0.2321,-0.2321,0,-0.173,-0.1779,-0.1851,-0.1942,-0.1965,-0.2018,-0.2107,-0.2165,-0.2246,-0.2286,-0.234,-0.2365,-0.2401,-0.2393,-0.2402,-0.2406,-0.2383,-0.2369,-0.2367,-0.2197,-0.2161,-0.2268,-0.2322,-0.2321,-0.2321,-0.2321,-0.2321,0,-0.1678,-0.1781,-0.1839,-0.1872,-0.198,-0.2029,-0.2089,-0.2178,-0.2222,-0.2308,-0.2337,-0.2391,-0.2411,-0.2412,-0.2391,-0.2402,-0.2374,-0.2383,-0.2216,-0.2204,-0.2337,-0.2332,-0.2375,-0.2375,-0.2375,-0.2375,-0.2375,0,-0.1654,-0.1703,-0.1824,-0.1853,-0.1919,-0.2008,-0.2079,-0.2146,-0.2231,-0.2262,-0.2349,-0.2362,-0.2418,-0.2411,-0.2392,-0.2289,-0.2375,-0.2206,-0.2179,-0.236,-0.236,-0.2336,-0.2332,-0.2373,-0.2374,-0.2374,-0.2374,0,-0.1578,-0.1664,-0.1733,-0.1856,-0.1896,-0.1943,-0.206,-0.2095,-0.2197,-0.2237,-0.2263,-0.2341,-0.2325,-0.2345,-0.2329,-0.2261,-0.2198,-0.214,-0.2312,-0.2298,-0.2026,-0.2026,-0.1948,-0.1942,-0.1937,-0.1933,-0.1929,0,-0.1542,-0.1573,-0.171,-0.1744,-0.1803,-0.1889,-0.1933,-0.2058,-0.2086,-0.2195,-0.2187,-0.2223,-0.225,-0.209,-0.2143,-0.2077,-0.2058,-0.2012,-0.2035,-0.1999,-0.1982,-0.199,-0.1996,-0.1921,-0.192,-0.1918,-0.1917,0,-0.1459,-0.1525,-0.1576,-0.1649,-0.1709,-0.1765,-0.184,-0.1844,-0.1965,-0.2078,-0.2039,-0.202,-0.1991,-0.1972,-0.1925,-0.1889,-0.2038,-0.1958,-0.1969,-0.1991,-0.1965,-0.1955,-0.1968,-0.1899,-0.1902,-0.1903,-0.1904,0,-0.1392,-0.1406,-0.1481,-0.1525,-0.1596,-0.1605,-0.1669,-0.1688,-0.1734,-0.1858,-0.1835,-0.188,-0.1957,-0.1872,-0.1835,-0.1777,-0.1761,-0.1709,-0.1733,-0.1753,-0.1711,-0.1651,-0.1449,0,0,0,0,0,-0.1316,-0.1312,-0.1345,-0.1387,-0.1449,-0.1486,-0.1583,-0.1648,-0.1766,-0.168,-0.1752,-0.1715,-0.1663,-0.1698,-0.1595,-0.1755,-0.1773,-0.1631,-0.1728,-0.1801,-0.1822,-0.1791,0,0,0,0,0,0,-0.1262,-0.1292,-0.1297,-0.1254,-0.1251,-0.1301,-0.1353,-0.1439,-0.1405,-0.1529,-0.1505,-0.1602,-0.1575,-0.168,-0.1555,-0.1563,-0.1586,-0.1672,-0.1667,-0.1789,-0.1808,-0.1824,-0.18,0,0,0,0,0]},{"header":{"parameterUnit":"m.s-1","parameterCategory":2,"la1":30.2991,"la2":30.254,"lo1":-89.0895,"lo2":-89.0444,"dy":0.0017,"dx":0.0017,"nx":28,"ny":28,"refTime":"2024-12-03T03:00:00:Z","depth":"4","parameterNumber":3,"parameterNumberName":"V-component_of_CURRENTS"},"data":[0,0,0,0,0,0,0,0,0,0,0,0,0,0,0,0,0,0,0,0,0,0,0,0,0,0,0,0,0,0,0,0,0,0,0,0,0,0,0,0,0,0,0,0,0,0,0,0,0,0,0,0,0,0,0,0,0,0,-0.0161,-0.0161,0,-0.0113,-0.0112,-0.0112,-0.0075,-0.0075,-0.0075,-0.0074,0.0009,0.0011,0.0013,0,0,0,0,0,0,0,0,0,0,0,0,0,-0.0182,-0.0182,-0.0161,-0.0161,-0.016,-0.0113,-0.0112,-0.0112,-0.0075,-0.0075,-0.0075,-0.0074,0.0008,0.0011,0.0013,0,0,0,0,0,0,0,0,0,0,0,0,0,-0.0156,-0.0182,-0.0161,-0.0137,-0.0135,-0.0113,-0.0112,-0.0111,-0.0075,-0.0075,-0.0075,-0.0074,0.0007,0.001,0.0013,0.0026,0,0,0.0023,0.0024,0,0,0,0,0,0,0,0,-0.0158,-0.0156,-0.0141,-0.0139,-0.0136,-0.0101,-0.0089,-0.0064,-0.0075,-0.0096,-0.0074,-0.0074,-0.0026,-0.002,-0.001,0.003,0.0033,0.0023,0.0025,0.0026,0.0027,0,0,0,0,0,0,0,-0.016,-0.0157,-0.0141,-0.0141,-0.0138,-0.0116,-0.0112,-0.0084,-0.0062,-0.0094,-0.0092,-0.0089,-0.0024,-0.0013,-0.0008,0.0034,0.0023,0.0026,0.0027,0.0029,0.0096,0.0096,0,0,0,0,0,0,-0.0171,-0.0159,-0.0142,-0.0139,-0.0148,-0.0116,-0.0112,-0.0111,-0.0063,-0.0056,-0.0089,-0.0088,-0.0019,-0.0011,-0.0005,0.0012,0.0026,0.0029,0.0031,0.0096,0.0096,0.0096,0,0,0,0,0,0,-0.0172,-0.017,-0.0144,-0.0149,-0.0144,-0.0116,-0.0116,-0.0111,-0.0102,-0.0059,-0.0051,-0.0087,-0.0018,-0.0009,0.0017,0.0015,0.003,0.0033,0.0096,0.0096,0.0096,0.0046,0,0,0,0,0,0,-0.0173,-0.0171,-0.0176,-0.015,-0.0145,-0.0138,-0.0116,-0.011,-0.0101,-0.0098,-0.0055,-0.0046,-0.0017,0.0012,0.002,0.002,0.0035,0.0096,0.0096,0.0096,0.0047,0.0044,0.0041,0,0,0,0,0,-0.0174,-0.0184,-0.0177,-0.0175,-0.0153,-0.0139,-0.0134,-0.0111,-0.0102,-0.0102,-0.0071,-0.0048,0.0017,0.0014,0.0023,0.0024,0.0096,0.0096,0.0096,0.0049,0.0044,0.0041,0,0,0,0,0,0,-0.0195,-0.018,-0.0172,-0.0177,-0.0163,-0.0133,-0.0133,-0.0117,-0.0093,-0.009,-0.0049,-0.0038,-0.0017,0.0011,0.0006,0.0044,0.0061,0.0063,0.0022,0.0018,0.0015,0.0004,0.0038,0,0,0,0,0,-0.0204,-0.0208,-0.0188,-0.0192,-0.0188,-0.0162,-0.0154,-0.0139,-0.0115,-0.0104,-0.0074,-0.004,-0.001,0.0008,0.0036,0.0057,0.009,0.0065,0.0061,0.0059,0.0056,0.0104,0.0105,0.0096,0.0096,0.0096,0,0,-0.0214,-0.0207,-0.0209,-0.0198,-0.0184,-0.0184,-0.0156,-0.015,-0.0146,-0.0098,-0.0085,-0.0052,-0.0008,0.0015,0.0027,0.0038,0.0078,0.0058,0.0056,0.0055,0.0104,0.0105,0.0105,0.0096,0.0096,0.0096,0,0,-0.0238,-0.0231,-0.0242,-0.0235,-0.0221,-0.0204,-0.0205,-0.018,-0.0166,-0.0149,-0.0113,-0.0081,-0.004,-0.0005,0.0018,0.0015,0.0057,0.0023,0.0002,0.0048,0.0049,0.005,0.0091,0.0096,0.0025,0.0024,0.0024,0,-0.0252,-0.0264,-0.0243,-0.0252,-0.0252,-0.0217,-0.0229,-0.0208,-0.0177,-0.0165,-0.0153,-0.0084,-0.0048,-0.0009,-0.0011,0.0008,0.0038,0.0011,0.0043,0.0045,0.0048,0.0089,0.0096,0.0022,0.0022,0.0023,0.0023,0,-0.0282,-0.0293,-0.03,-0.03,-0.0295,-0.03,-0.0272,-0.0261,-0.0239,-0.0214,-0.0177,-0.0124,-0.0082,-0.0064,-0.0038,-0.0004,0.0013,0.003,0.005,0.0045,0.009,0.0097,0.0018,0.0019,0.002,0.0021,0,0,-0.031,-0.0321,-0.0324,-0.0338,-0.0324,-0.0325,-0.0315,-0.0296,-0.0291,-0.0247,-0.023,-0.017,-0.0138,-0.011,-0.0066,-0.0022,0.0019,0.0004,0.0008,0.0039,0.0117,0.0099,0.0107,0.004,0.0041,0.0042,0.0141,0,-0.0342,-0.0378,-0.0368,-0.0398,-0.0415,-0.0385,-0.0381,-0.0357,-0.0325,-0.0298,-0.0228,-0.0197,-0.0156,-0.0137,-0.0086,-0.0009,0.0038,-0.0009,0.0122,0.0126,0.0107,0.0114,0.0046,0.0147,0.0149,0.015,0.0151,0,-0.0374,-0.0397,-0.0438,-0.0456,-0.046,-0.0469,-0.046,-0.045,-0.0395,-0.0369,-0.0316,-0.0261,-0.0188,-0.0155,-0.0021,-0.0054,0.0023,0.0088,0.0094,0.0099,0.0122,0.0156,0.0166,0.0165,0.0164,0.0163,0.0162,0,-0.0412,-0.0444,-0.0482,-0.049,-0.05,-0.0512,-0.0511,-0.0476,-0.0471,-0.0412,-0.0397,-0.0301,-0.0254,-0.0144,-0.0014,-0.0017,0.0136,0.0152,0.0214,0.0214,0.0223,0.0221,0.0248,0.0248,0.0248,0.0248,0.0247,0,-0.0448,-0.048,-0.0508,-0.0531,-0.0576,-0.0562,-0.0589,-0.0569,-0.0538,-0.053,-0.044,-0.0404,-0.025,-0.0143,-0.0024,0.0114,0.0131,0.0211,0.0238,0.0199,0.0193,0.0229,0.0225,0.0251,0.0251,0.025,0.0249,0,-0.048,-0.0498,-0.0549,-0.0583,-0.0599,-0.063,-0.0654,-0.0663,-0.0626,-0.061,-0.0594,-0.0477,-0.0336,-0.0177,0.001,0.0092,0.0233,0.028,0.0223,0.0246,0.0284,0.0277,0.0356,0.0357,0.0357,0.0357,0.0357,0,-0.0498,-0.0529,-0.0597,-0.0636,-0.0657,-0.0701,-0.0728,-0.0712,-0.0713,-0.065,-0.0638,-0.0509,-0.0413,-0.0155,0.0002,0.0226,0.0257,0.032,0.0305,0.0277,0.0296,0.0288,0.0281,0.0357,0.0357,0.0357,0.0357,0,-0.0531,-0.056,-0.0602,-0.0688,-0.0737,-0.0783,-0.0813,-0.0821,-0.0788,-0.0762,-0.0656,-0.0518,-0.0359,-0.0158,0.0014,0.0174,0.0271,0.0322,0.0323,0.031,0.0279,0.0296,0.0288,0.0358,0.0358,0.0358,0.0358,0,-0.0552,-0.0594,-0.0656,-0.0725,-0.0794,-0.0838,-0.0854,-0.0835,-0.0823,-0.0741,-0.0709,-0.0525,-0.0415,-0.0184,-0.0026,0.0126,0.0164,0.0202,0.021,0.0211,0.0134,0.0071,0.0111,0,0,0,0,0,-0.0567,-0.0614,-0.0687,-0.0761,-0.083,-0.0863,-0.0894,-0.0892,-0.0864,-0.0793,-0.0745,-0.0588,-0.034,-0.0228,-0.0076,-0.0037,0.0173,0.0141,0.0216,0.0361,0.036,0.0292,0,0,0,0,0,0,-0.0578,-0.0647,-0.0685,-0.0772,-0.0824,-0.0888,-0.0908,-0.0891,-0.0835,-0.0786,-0.0644,-0.0565,-0.0316,-0.0419,-0.0075,-0.003,0.0033,0.0263,0.0266,0.0361,0.0361,0.036,0.029,0,0,0,0,0]}]]